TimePDT,TemperatureF,Dew PointF,Humidity,Sea Level PressureIn,VisibilityMPH,Wind Direction,Wind SpeedMPH,Gust SpeedMPH,PrecipitationIn,Events,Conditions,WindDirDegrees,DateUTC
12:56 AM,59.0,17.1,20,29.92,10.0,Calm,Calm,-,N/A,,Clear,0,2014-04-04 07:56:00
1:56 AM,57.9,16.0,19,29.92,10.0,Calm,Calm,-,N/A,,Clear,0,2014-04-04 08:56:00
2:56 AM,55.0,16.0,22,29.91,10.0,NW,3.5,-,N/A,,Clear,320,2014-04-04 09:56:00
3:56 AM,54.0,17.1,23,29.90,10.0,NW,3.5,-,N/A,,Clear,320,2014-04-04 10:56:00
4:56 AM,54.0,16.0,22,29.89,10.0,NW,4.6,-,N/A,,Clear,320,2014-04-04 11:56:00
5:56 AM,54.0,17.1,23,29.89,10.0,NNW,3.5,-,N/A,,Clear,340,2014-04-04 12:56:00
6:56 AM,54.0,17.1,23,29.90,10.0,NNW,5.8,-,N/A,,Clear,330,2014-04-04 13:56:00
7:56 AM,57.0,18.0,22,29.91,10.0,NW,4.6,-,N/A,,Clear,320,2014-04-04 14:56:00
8:56 AM,61.0,19.0,20,29.91,10.0,NNW,4.6,-,N/A,,Clear,340,2014-04-04 15:56:00
9:56 AM,66.9,19.9,17,29.91,10.0,Variable,3.5,-,N/A,,Clear,0,2014-04-04 16:56:00
10:56 AM,72.0,21.0,15,29.88,10.0,SE,4.6,-,N/A,,Clear,130,2014-04-04 17:56:00
11:56 AM,75.0,18.0,12,29.85,10.0,Variable,4.6,-,N/A,,Clear,0,2014-04-04 18:56:00
1:56 PM,75.9,15.1,10,29.80,10.0,SSW,11.5,-,N/A,,Clear,210,2014-04-04 20:56:00
2:56 PM,77.0,14.0,9,29.77,10.0,WSW,9.2,19.6,N/A,,Clear,250,2014-04-04 21:56:00
3:56 PM,78.1,12.9,8,29.75,10.0,SW,10.4,20.7,N/A,,Clear,230,2014-04-04 22:56:00
4:56 PM,77.0,12.0,8,29.73,10.0,South,6.9,-,N/A,,Clear,180,2014-04-04 23:56:00
5:56 PM,75.0,12.0,9,29.73,10.0,Calm,Calm,-,N/A,,Clear,0,2014-04-05 00:56:00
6:56 PM,75.0,12.0,9,29.72,10.0,West,10.4,-,N/A,,Unknown,270,2014-04-05 01:56:00
7:56 PM,73.9,16.0,11,29.73,10.0,NW,12.7,-,N/A,,Partly Cloudy,310,2014-04-05 02:56:00
8:56 PM,73.0,17.1,12,29.74,10.0,South,3.5,-,N/A,,Scattered Clouds,180,2014-04-05 03:56:00
9:56 PM,72.0,18.0,13,29.73,10.0,Calm,Calm,-,N/A,,Clear,0,2014-04-05 04:56:00
10:56 PM,66.0,17.1,15,29.71,10.0,WNW,5.8,-,N/A,,Clear,300,2014-04-05 05:56:00
11:56 PM,66.9,16.0,14,29.71,10.0,WSW,6.9,-,N/A,,Clear,250,2014-04-05 06:56:00